Time,TemperatureF,DewpointF,PressureIn,WindDirection,WindDirectionDegrees,WindSpeedMPH,WindSpeedGustMPH,Humidity,HourlyPrecipIn,Conditions,Clouds,dailyrainin,SolarRadiationWatts/m^2,SoftwareType,DateUTC
2013-05-30 00:02:00,65.0,63.0,-100.00,NNW,335,1.0,4.0,92,0.00,,,0.00,0.000000,,2013-05-30 04:02:00,
2013-05-30 00:23:00,65.0,63.0,-100.00,NNW,335,1.0,4.0,92,0.00,,,0.00,0.000000,,2013-05-30 04:23:00,
2013-05-30 00:33:00,65.0,63.0,-100.00,NNW,335,1.0,4.0,92,0.00,,,0.00,0.000000,,2013-05-30 04:33:00,
2013-05-30 00:42:00,65.0,63.0,-100.00,NNW,335,1.0,4.0,92,0.00,,,0.00,0.000000,,2013-05-30 04:42:00,
2013-05-30 00:53:00,65.0,63.0,-100.00,NNW,335,1.0,4.0,92,0.00,,,0.00,0.000000,,2013-05-30 04:53:00,
2013-05-30 01:22:00,64.0,62.0,-100.00,NNW,328,2.0,5.0,94,0.00,,,0.00,0.000000,,2013-05-30 05:22:00,
2013-05-30 01:32:00,64.0,62.0,-100.00,NNW,328,2.0,5.0,94,0.00,,,0.00,0.000000,,2013-05-30 05:32:00,
2013-05-30 01:43:00,64.0,62.0,-100.00,NNW,328,2.0,5.0,94,0.00,,,0.00,0.000000,,2013-05-30 05:43:00,
2013-05-30 01:52:00,64.0,62.0,-100.00,NNW,328,2.0,5.0,94,0.00,,,0.00,0.000000,,2013-05-30 05:52:00,
2013-05-30 02:01:00,64.0,62.0,-100.00,NNW,328,2.0,5.0,94,0.00,,,0.00,0.000000,,2013-05-30 06:01:00,
2013-05-30 02:22:00,64.0,62.0,-100.00,NNW,327,1.0,2.0,92,0.00,,,0.00,0.000000,,2013-05-30 06:22:00,
2013-05-30 02:32:00,64.0,62.0,-100.00,NNW,327,1.0,2.0,92,0.00,,,0.00,0.000000,,2013-05-30 06:32:00,
2013-05-30 02:42:00,64.0,62.0,-100.00,NNW,327,1.0,2.0,92,0.00,,,0.00,0.000000,,2013-05-30 06:42:00,
2013-05-30 02:52:00,64.0,62.0,-100.00,NNW,327,1.0,2.0,92,0.00,,,0.00,0.000000,,2013-05-30 06:52:00,
2013-05-30 03:01:00,64.0,62.0,-100.00,NNW,327,1.0,2.0,92,0.00,,,0.00,0.000000,,2013-05-30 07:01:00,
2013-05-30 03:02:00,62.0,61.0,-100.00,North,354,2.0,4.0,96,0.00,,,0.00,0.000000,,2013-05-30 07:02:00,
2013-05-30 03:22:00,62.0,61.0,-100.00,North,354,2.0,4.0,96,0.00,,,0.00,0.000000,,2013-05-30 07:22:00,
2013-05-30 03:32:00,62.0,61.0,-100.00,North,354,2.0,4.0,96,0.00,,,0.00,0.000000,,2013-05-30 07:32:00,
2013-05-30 03:42:00,62.0,61.0,-100.00,North,354,2.0,4.0,96,0.00,,,0.00,0.000000,,2013-05-30 07:42:00,
2013-05-30 03:52:00,62.0,61.0,-100.00,North,354,2.0,4.0,96,0.00,,,0.00,0.000000,,2013-05-30 07:52:00,
2013-05-30 04:22:00,62.0,61.0,-100.00,North,353,2.0,3.0,95,0.00,,,0.00,0.000000,,2013-05-30 08:22:00,
2013-05-30 04:32:00,62.0,61.0,-100.00,North,353,2.0,3.0,95,0.00,,,0.00,0.000000,,2013-05-30 08:32:00,
2013-05-30 04:42:00,62.0,61.0,-100.00,North,353,2.0,3.0,95,0.00,,,0.00,0.000000,,2013-05-30 08:42:00,
2013-05-30 04:53:00,62.0,61.0,-100.00,North,353,2.0,3.0,95,0.00,,,0.00,0.000000,,2013-05-30 08:53:00,
2013-05-30 05:01:00,62.0,61.0,-100.00,North,353,2.0,3.0,95,0.00,,,0.00,0.000000,,2013-05-30 09:01:00,
2013-05-30 05:02:00,61.0,60.0,-100.00,NNW,334,1.0,3.0,97,0.00,,,0.00,0.000000,,2013-05-30 09:02:00,
2013-05-30 05:22:00,61.0,60.0,-100.00,NNW,334,1.0,3.0,97,0.00,,,0.00,0.000000,,2013-05-30 09:22:00,
2013-05-30 05:33:00,61.0,60.0,-100.00,NNW,334,1.0,3.0,97,0.00,,,0.00,0.000000,,2013-05-30 09:33:00,
2013-05-30 05:43:00,61.0,60.0,-100.00,NNW,334,1.0,3.0,97,0.00,,,0.00,0.000000,,2013-05-30 09:43:00,
2013-05-30 05:53:00,61.0,60.0,-100.00,NNW,334,1.0,3.0,97,0.00,,,0.00,0.000000,,2013-05-30 09:53:00,
2013-05-30 06:02:00,62.0,61.0,-100.00,WNW,296,1.0,2.0,96,0.00,,,0.00,0.000000,,2013-05-30 10:02:00,
2013-05-30 06:23:00,62.0,61.0,-100.00,WNW,296,1.0,2.0,96,0.00,,,0.00,0.000000,,2013-05-30 10:23:00,
2013-05-30 06:33:00,62.0,61.0,-100.00,WNW,296,1.0,2.0,96,0.00,,,0.00,0.000000,,2013-05-30 10:33:00,
2013-05-30 06:42:00,62.0,61.0,-100.00,WNW,296,1.0,2.0,96,0.00,,,0.00,0.000000,,2013-05-30 10:42:00,
2013-05-30 06:52:00,62.0,61.0,-100.00,WNW,296,1.0,2.0,96,0.00,,,0.00,0.000000,,2013-05-30 10:52:00,
2013-05-30 07:22:00,63.0,62.0,-100.00,North,359,1.0,2.0,96,0.00,,,0.00,4.000000,,2013-05-30 11:22:00,
2013-05-30 07:32:00,63.0,62.0,-100.00,North,359,1.0,2.0,96,0.00,,,0.00,4.000000,,2013-05-30 11:32:00,
2013-05-30 07:42:00,63.0,62.0,-100.00,North,359,1.0,2.0,96,0.00,,,0.00,4.000000,,2013-05-30 11:42:00,
2013-05-30 07:52:00,63.0,62.0,-100.00,North,359,1.0,2.0,96,0.00,,,0.00,4.000000,,2013-05-30 11:52:00,
2013-05-30 08:01:00,63.0,62.0,-100.00,North,359,1.0,2.0,96,0.00,,,0.00,4.000000,,2013-05-30 12:01:00,
2013-05-30 08:22:00,65.0,64.0,-100.00,NNE,24,2.0,4.0,95,0.00,,,0.00,31.000000,,2013-05-30 12:22:00,
2013-05-30 08:32:00,65.0,64.0,-100.00,NNE,24,2.0,4.0,95,0.00,,,0.00,31.000000,,2013-05-30 12:32:00,
2013-05-30 08:42:00,65.0,64.0,-100.00,NNE,24,2.0,4.0,95,0.00,,,0.00,31.000000,,2013-05-30 12:42:00,
2013-05-30 08:52:00,65.0,64.0,-100.00,NNE,24,2.0,4.0,95,0.00,,,0.00,31.000000,,2013-05-30 12:52:00,
2013-05-30 09:01:00,65.0,64.0,-100.00,NNE,24,2.0,4.0,95,0.00,,,0.00,31.000000,,2013-05-30 13:01:00,
2013-05-30 09:02:00,67.0,65.0,-100.00,NNW,342,2.0,3.0,94,0.00,,,0.00,66.000000,,2013-05-30 13:02:00,
2013-05-30 09:22:00,67.0,65.0,-100.00,NNW,342,2.0,3.0,94,0.00,,,0.00,66.000000,,2013-05-30 13:22:00,
2013-05-30 09:32:00,67.0,65.0,-100.00,NNW,342,2.0,3.0,94,0.00,,,0.00,66.000000,,2013-05-30 13:32:00,
2013-05-30 09:42:00,67.0,65.0,-100.00,NNW,342,2.0,3.0,94,0.00,,,0.00,66.000000,,2013-05-30 13:42:00,
2013-05-30 09:52:00,67.0,65.0,-100.00,NNW,342,2.0,3.0,94,0.00,,,0.00,66.000000,,2013-05-30 13:52:00,
2013-05-30 10:22:00,69.0,66.0,-100.00,North,352,1.0,3.0,91,0.00,,,0.00,114.000000,,2013-05-30 14:22:00,
2013-05-30 10:32:00,69.0,66.0,-100.00,North,352,1.0,3.0,91,0.00,,,0.00,114.000000,,2013-05-30 14:32:00,
2013-05-30 10:42:00,69.0,66.0,-100.00,North,352,1.0,3.0,91,0.00,,,0.00,114.000000,,2013-05-30 14:42:00,
2013-05-30 10:52:00,69.0,66.0,-100.00,North,352,1.0,3.0,91,0.00,,,0.00,114.000000,,2013-05-30 14:52:00,
2013-05-30 11:01:00,69.0,66.0,-100.00,North,352,1.0,3.0,91,0.00,,,0.00,114.000000,,2013-05-30 15:01:00,
2013-05-30 11:02:00,74.0,66.0,-100.00,SE,144,2.0,5.0,76,0.00,,,0.00,402.000000,,2013-05-30 15:02:00,
2013-05-30 11:22:00,74.0,66.0,-100.00,SE,144,2.0,5.0,76,0.00,,,0.00,402.000000,,2013-05-30 15:22:00,
2013-05-30 11:33:00,74.0,66.0,-100.00,SE,144,2.0,5.0,76,0.00,,,0.00,402.000000,,2013-05-30 15:33:00,
2013-05-30 11:43:00,74.0,66.0,-100.00,SE,144,2.0,5.0,76,0.00,,,0.00,402.000000,,2013-05-30 15:43:00,
2013-05-30 11:53:00,74.0,66.0,-100.00,SE,144,2.0,5.0,76,0.00,,,0.00,402.000000,,2013-05-30 15:53:00,
2013-05-30 12:02:00,76.0,65.0,-100.00,ESE,113,2.0,6.0,69,0.00,,,0.00,434.000000,,2013-05-30 16:02:00,
2013-05-30 12:23:00,76.0,65.0,-100.00,ESE,113,2.0,6.0,69,0.00,,,0.00,434.000000,,2013-05-30 16:23:00,
2013-05-30 12:33:00,76.0,65.0,-100.00,ESE,113,2.0,6.0,69,0.00,,,0.00,434.000000,,2013-05-30 16:33:00,
2013-05-30 12:42:00,76.0,65.0,-100.00,ESE,113,2.0,6.0,69,0.00,,,0.00,434.000000,,2013-05-30 16:42:00,
2013-05-30 12:53:00,76.0,65.0,-100.00,ESE,113,2.0,6.0,69,0.00,,,0.00,434.000000,,2013-05-30 16:53:00,
2013-05-30 13:02:00,79.0,65.0,-100.00,NNE,31,3.0,6.0,63,0.00,,,0.00,488.000000,,2013-05-30 17:02:00,
2013-05-30 13:22:00,79.0,65.0,-100.00,NNE,31,3.0,6.0,63,0.00,,,0.00,488.000000,,2013-05-30 17:22:00,
2013-05-30 13:32:00,79.0,65.0,-100.00,NNE,31,3.0,6.0,63,0.00,,,0.00,488.000000,,2013-05-30 17:32:00,
2013-05-30 13:42:00,79.0,65.0,-100.00,NNE,31,3.0,6.0,63,0.00,,,0.00,488.000000,,2013-05-30 17:42:00,
2013-05-30 13:52:00,79.0,65.0,-100.00,NNE,31,3.0,6.0,63,0.00,,,0.00,488.000000,,2013-05-30 17:52:00,
2013-05-30 14:02:00,81.0,65.0,-100.00,East,98,2.0,7.0,59,0.00,,,0.00,705.000000,,2013-05-30 18:02:00,
2013-05-30 14:22:00,81.0,65.0,-100.00,East,98,2.0,7.0,59,0.00,,,0.00,705.000000,,2013-05-30 18:22:00,
2013-05-30 14:32:00,81.0,65.0,-100.00,East,98,2.0,7.0,59,0.00,,,0.00,705.000000,,2013-05-30 18:32:00,
2013-05-30 14:43:00,81.0,65.0,-100.00,East,98,2.0,7.0,59,0.00,,,0.00,705.000000,,2013-05-30 18:43:00,
2013-05-30 14:52:00,81.0,65.0,-100.00,East,98,2.0,7.0,59,0.00,,,0.00,705.000000,,2013-05-30 18:52:00,
2013-05-30 15:02:00,83.0,64.0,-100.00,South,172,2.0,6.0,53,0.00,,,0.00,872.000000,,2013-05-30 19:02:00,
2013-05-30 15:23:00,83.0,64.0,-100.00,South,172,2.0,6.0,53,0.00,,,0.00,872.000000,,2013-05-30 19:23:00,
2013-05-30 15:32:00,83.0,64.0,-100.00,South,172,2.0,6.0,53,0.00,,,0.00,872.000000,,2013-05-30 19:32:00,
2013-05-30 15:42:00,83.0,64.0,-100.00,South,172,2.0,6.0,53,0.00,,,0.00,872.000000,,2013-05-30 19:42:00,
2013-05-30 15:53:00,83.0,64.0,-100.00,South,172,2.0,6.0,53,0.00,,,0.00,872.000000,,2013-05-30 19:53:00,
2013-05-30 16:23:00,83.0,65.0,-100.00,South,186,2.0,5.0,54,0.00,,,0.00,589.000000,,2013-05-30 20:23:00,
2013-05-30 16:33:00,83.0,65.0,-100.00,South,186,2.0,5.0,54,0.00,,,0.00,589.000000,,2013-05-30 20:33:00,
2013-05-30 16:42:00,83.0,65.0,-100.00,South,186,2.0,5.0,54,0.00,,,0.00,589.000000,,2013-05-30 20:42:00,
2013-05-30 16:52:00,83.0,65.0,-100.00,South,186,2.0,5.0,54,0.00,,,0.00,589.000000,,2013-05-30 20:52:00,
2013-05-30 17:01:00,83.0,65.0,-100.00,South,186,2.0,5.0,54,0.00,,,0.00,589.000000,,2013-05-30 21:01:00,
2013-05-30 17:02:00,81.0,65.0,-100.00,South,188,2.0,4.0,59,0.00,,,0.00,455.000000,,2013-05-30 21:02:00,
2013-05-30 17:22:00,81.0,65.0,-100.00,South,188,2.0,4.0,59,0.00,,,0.00,455.000000,,2013-05-30 21:22:00,
2013-05-30 17:33:00,81.0,65.0,-100.00,South,188,2.0,4.0,59,0.00,,,0.00,455.000000,,2013-05-30 21:33:00,
2013-05-30 17:43:00,81.0,65.0,-100.00,South,188,2.0,4.0,59,0.00,,,0.00,455.000000,,2013-05-30 21:43:00,
2013-05-30 17:53:00,81.0,65.0,-100.00,South,188,2.0,4.0,59,0.00,,,0.00,455.000000,,2013-05-30 21:53:00,
2013-05-30 18:02:00,79.0,67.0,-100.00,ESE,112,2.0,6.0,66,0.00,,,0.00,375.000000,,2013-05-30 22:02:00,
2013-05-30 18:23:00,79.0,67.0,-100.00,ESE,112,2.0,6.0,66,0.00,,,0.00,375.000000,,2013-05-30 22:23:00,
2013-05-30 18:33:00,79.0,67.0,-100.00,ESE,112,2.0,6.0,66,0.00,,,0.00,375.000000,,2013-05-30 22:33:00,
2013-05-30 18:42:00,79.0,67.0,-100.00,ESE,112,2.0,6.0,66,0.00,,,0.00,375.000000,,2013-05-30 22:42:00,
2013-05-30 18:52:00,79.0,67.0,-100.00,ESE,112,2.0,6.0,66,0.00,,,0.00,375.000000,,2013-05-30 22:52:00,
2013-05-30 19:22:00,78.0,67.0,-100.00,ENE,65,2.0,6.0,69,0.00,,,0.00,175.000000,,2013-05-30 23:22:00,
2013-05-30 19:32:00,78.0,67.0,-100.00,ENE,65,2.0,6.0,69,0.00,,,0.00,175.000000,,2013-05-30 23:32:00,
2013-05-30 19:42:00,78.0,67.0,-100.00,ENE,65,2.0,6.0,69,0.00,,,0.00,175.000000,,2013-05-30 23:42:00,
2013-05-30 19:52:00,78.0,67.0,-100.00,ENE,65,2.0,6.0,69,0.00,,,0.00,175.000000,,2013-05-30 23:52:00,
2013-05-30 20:01:00,78.0,67.0,-100.00,ENE,65,2.0,6.0,69,0.00,,,0.00,175.000000,,2013-05-31 00:01:00,
2013-05-30 20:22:00,75.0,66.0,-100.00,WNW,295,2.0,5.0,74,0.00,,,0.00,79.000000,,2013-05-31 00:22:00,
2013-05-30 20:32:00,75.0,66.0,-100.00,WNW,295,2.0,5.0,74,0.00,,,0.00,79.000000,,2013-05-31 00:32:00,
2013-05-30 20:42:00,75.0,66.0,-100.00,WNW,295,2.0,5.0,74,0.00,,,0.00,79.000000,,2013-05-31 00:42:00,
2013-05-30 20:52:00,75.0,66.0,-100.00,WNW,295,2.0,5.0,74,0.00,,,0.00,79.000000,,2013-05-31 00:52:00,
2013-05-30 21:01:00,75.0,66.0,-100.00,WNW,295,2.0,5.0,74,0.00,,,0.00,79.000000,,2013-05-31 01:01:00,
2013-05-30 21:02:00,72.0,65.0,-100.00,WNW,299,1.0,5.0,78,0.00,,,0.00,13.000000,,2013-05-31 01:02:00,
2013-05-30 21:21:00,72.0,65.0,-100.00,WNW,299,1.0,5.0,78,0.00,,,0.00,13.000000,,2013-05-31 01:21:00,
2013-05-30 21:32:00,72.0,65.0,-100.00,WNW,299,1.0,5.0,78,0.00,,,0.00,13.000000,,2013-05-31 01:32:00,
2013-05-30 21:42:00,72.0,65.0,-100.00,WNW,299,1.0,5.0,78,0.00,,,0.00,13.000000,,2013-05-31 01:42:00,
2013-05-30 21:52:00,72.0,65.0,-100.00,WNW,299,1.0,5.0,78,0.00,,,0.00,13.000000,,2013-05-31 01:52:00,
2013-05-30 22:22:00,70.0,65.0,-100.00,NNW,340,1.0,4.0,84,0.00,,,0.00,0.000000,,2013-05-31 02:22:00,
2013-05-30 22:32:00,70.0,65.0,-100.00,NNW,340,1.0,4.0,84,0.00,,,0.00,0.000000,,2013-05-31 02:32:00,
2013-05-30 22:42:00,70.0,65.0,-100.00,NNW,340,1.0,4.0,84,0.00,,,0.00,0.000000,,2013-05-31 02:42:00,
2013-05-30 22:52:00,70.0,65.0,-100.00,NNW,340,1.0,4.0,84,0.00,,,0.00,0.000000,,2013-05-31 02:52:00,
2013-05-30 23:01:00,70.0,65.0,-100.00,NNW,340,1.0,4.0,84,0.00,,,0.00,0.000000,,2013-05-31 03:01:00,
2013-05-30 23:02:00,68.0,64.0,-100.00,NW,312,1.0,4.0,88,0.00,,,0.00,0.000000,,2013-05-31 03:02:00,
2013-05-30 23:22:00,68.0,64.0,-100.00,NW,312,1.0,4.0,88,0.00,,,0.00,0.000000,,2013-05-31 03:22:00,
2013-05-30 23:33:00,68.0,64.0,-100.00,NW,312,1.0,4.0,88,0.00,,,0.00,0.000000,,2013-05-31 03:33:00,
2013-05-30 23:43:00,68.0,64.0,-100.00,NW,312,1.0,4.0,88,0.00,,,0.00,0.000000,,2013-05-31 03:43:00,
2013-05-30 23:53:00,68.0,64.0,-100.00,NW,312,1.0,4.0,88,0.00,,,0.00,0.000000,,2013-05-31 03:53:00,